Regional Weather Roundup
Issued by NWS Goodland, KS

Home | Current Version | Previous Version | Graphics & Text | Print | Product List | Glossary Off
Versions: 1 2 3 4 5 6 7 8 9 10 11 12 13 14 15 16 17 18 19 20 21 22 23 24 25 26 27 28 29 30 31 32 33 34 35 36 37 38 39 40 41 42 43 44 45 46 47 48 49 50

251
ASUS43 KGLD 162208
RWRGLD

GOODLAND FORECAST AREA HOURLY WEATHER ROUNDUP
NATIONAL WEATHER SERVICE GOODLAND KS
300 PM MST SAT DEC 16 2017

...OFFICIAL OBSERVATIONS...

CITY           SKY/WX    TMP DP  RH WIND       PRES   REMARKS
GOODLAND KS    SUNNY     52  17  25 NE17G30   29.75R
HILL CITY KS   SUNNY     53  19  26 E13       29.77R
IMPERIAL NEB   CLOUDY    47  29  49 NE21G28   29.82R
MCCOOK NEB     CLOUDY    51  27  39 NE23      29.79R
AKRON CO       CLOUDY    45  22  40 E16G26    29.80R
BURLINGTON CO  SUNNY     50  18  28 NE21G30   29.76R
LIMON CO       CLOUDY    46  13  26 NE15      29.77R
$$

...UNOFFICIAL OBSERVATIONS...

CITY           SKY/WX    TMP DP  RH WIND       PRES   REMARKS
COLBY KS       SUNNY     54  25  32 E20       29.77R
LENORA KS        N/A     51  32  48 CALM        N/A
NORTON KS      SUNNY     54  14  20 NE18G24   29.78
SHARON SPRINGS   N/A     55  17  22 E12G20      N/A
TRENTON NEB      N/A     48  32  54 NE12        N/A
KIT CARSON CO    N/A     50  19  29 MISG        N/A
YUMA CO        FAIR      45  25  45 NE18G28   29.79R
$$




USA.gov is the U.S. government's official web portal to all federal, state and local government web resources and services.